Weather History for KMIE - July, 2013

Change the Weather History Date:

Friday, July 5, 2013

  Actual Average Record
Temperature  
Mean Temperature 73 °F 75 °F  
Max Temperature 80 °F 85 °F - ()
Min Temperature 66 °F 65 °F - ()
Degree Days  
Heating Degree Days 0 0  
Month to date heating degree days 0 0  
Since 1 June heating degree days 14 24  
Since 1 July heating degree days 0 0  
Cooling Degree Days 8 10  
Month to date cooling degree days 25 50  
Year to date cooling degree days 399 349  
Since 1 June cooling degree days 231 266  
Growing Degree Days 22 (Base 50)    
Moisture  
Dew Point 65 °F    
Average Humidity 81    
Maximum Humidity 100    
Minimum Humidity 62    
Precipitation  
Precipitation 0.00 in 0.13 in - ()
Month to date precipitation 0.63 0.69  
Year to date precipitation 21.42 20.92  
Sea Level Pressure  
Sea Level Pressure 30.10 in    
Wind  
Wind Speed 4 mph (SSW)    
Max Wind Speed 10 mph    
Max Gust Speed 14 mph    
Visibility 8 miles    
Events      
T = Trace of Precipitation, MM = Missing Value Source: NWS Daily Summary

Daily Weather History Graph

Daily Weather History Graph

Search for Another Location

Airport or City:

Trip Planner

Search our weather history database for the weather conditions in past years. The results will help you decide how hot, cold, wet, or windy it might be!

Date:

Astronomy

Jul. 05, 2013 Rise Set
Actual Time 6:18 AM EDT 9:14 PM EDT
Civil Twilight 5:45 AM EDT 9:46 PM EDT
Nautical Twilight 5:03 AM EDT 10:28 PM EDT
Astronomical Twilight 4:16 AM EDT 11:15 PM EDT
Moon 4:16 AM EDT (7/5) 7:08 PM EDT (7/5)
Length of Visible Light 16h 01m
Length of Day
14h 56m
Waning Crescent, 6% of the Moon is Illuminated
Jul 5
Waning Crescent
Jul 8
New
Jul 15
First Quarter
Jul 22
Full
Jul 29
Last Quarter

Hourly Weather History & Observations

Time (EDT) Temp. Dew Point Humidity Pressure Visibility Wind Dir Wind Speed Gust Speed Precip Events Conditions
12:53 AM 69.1 °F 66.0 °F 90% 30.09 in 6.0 mi Calm Calm - N/A   Overcast
1:53 AM 69.1 °F 66.0 °F 90% 30.08 in 9.0 mi SW 3.5 mph - N/A   Overcast
2:53 AM 68.0 °F 64.9 °F 90% 30.08 in 9.0 mi SSW 6.9 mph - N/A   Mostly Cloudy
3:53 AM 68.0 °F 64.9 °F 90% 30.07 in 9.0 mi SSW 3.5 mph - N/A   Partly Cloudy
4:53 AM 66.9 °F 64.9 °F 93% 30.06 in 9.0 mi SSW 4.6 mph - N/A   Clear
5:53 AM 66.9 °F 64.9 °F 93% 30.06 in 6.0 mi Calm Calm - N/A   Clear
6:43 AM 66.2 °F 64.4 °F 94% 30.11 in 5.0 mi Calm Calm - N/A   Partly Cloudy
6:53 AM 66.0 °F 64.0 °F 93% 30.08 in 4.0 mi Calm Calm - N/A   Scattered Clouds
7:01 AM 66.2 °F 64.4 °F 94% 30.11 in 4.0 mi Calm Calm - N/A   Mostly Cloudy
7:22 AM 66.2 °F 64.4 °F 94% 30.11 in 2.5 mi Variable 3.5 mph - N/A   Overcast
7:53 AM 66.9 °F 66.0 °F 97% 30.10 in 2.5 mi SW 5.8 mph - N/A   Overcast
8:31 AM 66.2 °F 64.4 °F 94% 30.14 in 3.0 mi SW 4.6 mph - N/A   Overcast
8:53 AM 68.0 °F 66.0 °F 93% 30.11 in 6.0 mi SSW 4.6 mph - N/A   Overcast
9:23 AM 69.8 °F 64.4 °F 83% 30.15 in 8.0 mi West 3.5 mph - N/A   Overcast
9:53 AM 69.1 °F 64.9 °F 87% 30.13 in 10.0 mi WSW 3.5 mph - N/A   Overcast
10:20 AM 69.8 °F 64.4 °F 83% 30.15 in 10.0 mi Calm Calm - N/A   Overcast
10:53 AM 73.9 °F 66.0 °F 76% 30.13 in 10.0 mi South 4.6 mph - N/A   Mostly Cloudy
11:08 AM 73.4 °F 64.4 °F 73% 30.15 in 10.0 mi Calm Calm - N/A   Mostly Cloudy
11:46 AM 73.4 °F 64.4 °F 73% 30.16 in 10.0 mi SSW 5.8 mph - N/A   Overcast
11:53 AM 73.9 °F 64.9 °F 73% 30.13 in 10.0 mi South 3.5 mph - N/A   Overcast
12:53 PM 73.9 °F 64.9 °F 73% 30.12 in 10.0 mi Calm Calm - N/A   Overcast
1:53 PM 78.1 °F 64.9 °F 64% 30.10 in 10.0 mi ENE 4.6 mph - N/A   Mostly Cloudy
2:53 PM 78.1 °F 64.9 °F 64% 30.10 in 10.0 mi NE 3.5 mph - N/A   Overcast
3:53 PM 78.1 °F 66.0 °F 66% 30.08 in 10.0 mi ESE 5.8 mph - N/A   Mostly Cloudy
4:53 PM 78.1 °F 64.9 °F 64% 30.08 in 10.0 mi Calm Calm - N/A   Scattered Clouds
5:53 PM 78.1 °F 64.0 °F 62% 30.06 in 10.0 mi SSE 8.1 mph - N/A   Overcast
6:53 PM 78.1 °F 64.0 °F 62% 30.06 in 10.0 mi Variable 5.8 mph - N/A   Clear
7:53 PM 77.0 °F 64.0 °F 64% 30.06 in 10.0 mi SSW 5.8 mph - N/A   Clear
8:53 PM 75.0 °F 66.0 °F 73% 30.07 in 10.0 mi South 6.9 mph - N/A   Clear
9:53 PM 73.9 °F 66.0 °F 76% 30.08 in 10.0 mi South 6.9 mph - N/A   Clear
10:53 PM 73.0 °F 66.0 °F 79% 30.09 in 10.0 mi South 5.8 mph - N/A   Clear
11:53 PM 72.0 °F 66.9 °F 84% 30.10 in 10.0 mi South 5.8 mph - N/A   Clear